Starlink 30349

operational
NORAD ID: 57713 Int'l Des: 2023-129 Owner: SPXS Country: US Constellation: starlink
LEOCIRCULAR

Starlink 30349について

説明を読み込み中...

リアルタイム位置

3D地球を読み込み中...

次回通過

高度履歴

Altitude vs Time

uPlot chart will show altitude changes over time

軌道要素

1 57713U 23129R 25303.51513829 -.00000058 00000-0 10766-4 0 9995
2 57713 43.0032 107.5516 0001240 266.3128 93.7573 15.02537399120930
Epoch: Oct 30, 2025 • Age: 28 hours

現在のステータス

高度 558.8 km
速度 7.58 km/s
衛星直下点 0.69°N, 3.91°W
打ち上げ日 Aug 27, 2023
運用期間 2.1 years
タイプ internet

技術仕様

分類 Payload
質量 730.00 kg
乾燥質量 700.00 kg
総質量 730.00 kg
長さ 0.30 m
直径 4.10 m
スパン 29.00 m
形状 Box + pan
製造者 SPXS
バスタイプ Starlink V2M
フェーズステータス In Orbit
所有者/国 SPXS/US

大規模コンステレーション

Loading constellations...